Regional Weather Roundup
Issued by NWS Bismarck, ND

Home | Current Version | Previous Version | Text Only | Print | Product List | Glossary On
Versions: 1 2 3 4 5 6 7 8 9 10 11 12 13 14 15 16 17 18 19 20 21 22 23 24 25 26 27 28 29 30 31 32 33 34 35 36 37 38 39 40 41 42 43 44 45 46 47 48 49 50
144
ASUS43 KBIS 221910
RWRBIS

NWR BROADCAST TEXT
NATIONAL WEATHER SERVICE BISMARCK ND
100 PM CST SUN JAN 22 2017

NOTE: "FAIR" INDICATES FEW OR NO CLOUDS BELOW 12,000 FEET WITH NO
SIGNIFICANT WEATHER AND/OR OBSTRUCTIONS TO VISIBILITY.


CITY           SKY/WX    TMP DP  RH WIND       PRES   REMARKS
WILLISTON      CLOUDY    31  27  85 W14       29.80F
MINOT          CLOUDY    33  30  88 W10       29.75F
MINOT AFB      CLOUDY    31  29  92 NW9       29.74F
BISMARCK       CLOUDY    33  29  85 W7        29.80F
DICKINSON      CLOUDY    26  24  92 NW17      29.78F WCI  13
GARRISON         N/A     32  28  85 W15       29.77S
HETTINGER ARPT CLOUDY    28  25  88 W21       29.83S WCI  15
JAMESTOWN      CLOUDY    32  29  88 NW18      29.73F
CARRINGTON     CLOUDY    32  28  86 NW18      29.75F
HAZEN          CLOUDY   N/A N/A N/A W15       29.81S
MANDAN         MOCLDY    28  28 100 W14       29.80S WCI  17
RUGBY            N/A     28  27  93 NW12      29.74R WCI  18
STANLEY        CLOUDY    30  30 100 W14       29.78S WCI  20
TIOGA          CLOUDY    28  28 100 W15       29.78R WCI  17
WATFORD CITY   CLOUDY    28  27  93 W17       29.80F WCI  16
$$

CITY           SKY/WX    TMP DP  RH WIND       PRES   REMARKS
GRAND FORKS    CLOUDY    35  29  78 W7        29.73F
GRAND FORKS AF CLOUDY    33  29  83 W8        29.73S
DEVILS LAKE    CLOUDY    30  28  92 W12       29.73S FOG
FARGO          CLOUDY    36  32  85 W8        29.74F FOG
CAVALIER       MIX PCPN  32  32 100 W7        29.72S
GRAFTON        MIX PCPN  32  32 100 W7        29.74F
GWINNER        CLOUDY    34  32  93 W10       29.76S
ROLLA            N/A    N/A N/A N/A MISG        N/A
$$

CITY           SKY/WX    TMP DP  RH WIND       PRES   REMARKS
ABERDEEN       CLOUDY    29  24  82 W12       29.81S WCI  19
MOBRIDGE       CLOUDY    26  22  84 NW12      29.79F WCI  16
BUFFALO          N/A     31  24  75 W6        29.76F
RAPID CITY     FAIR      42  22  44 CALM      29.84F
GLASGOW        CLOUDY    30  24  78 NW16      29.84S WCI  19
SIDNEY         CLOUDY    31  26  82 W10       29.83F
WOLF POINT     CLOUDY    31  26  82 W12       29.84F
MILES CITY     MIX PCPN  22  19  89 NW6       29.88F VSB 1/4 WCI  14
BAKER          FOG       23  21  92 NW14      29.84S VSB 1/2 WCI  11
$$

CITY           SKY/WX    TMP DP  RH WIND       PRES   REMARKS
BILLINGS       FAIR      32  19  58 S8        29.84F
GREAT FALLS    FAIR      32  23  69 E6        29.79F
REGINA         CLOUDY    28  23  80 NW17      29.75S WCI  16
ESTEVAN        CLOUDY    28  28 100 W10       29.75S WCI  19
$$





USA.gov is the U.S. government's official web portal to all federal, state and local government web resources and services.